You are listening to:
YSBK ATIS - Bankstown, New South Wales, Australia

YSSY 210300Z 19018KT 9999 FEW025 SCT045 17/11 Q1025 RF00.0/000.0

If stream doesn't start automatically press the play button
If stream stops then reload player then press play